Location: Gugi
(45.4667°N, 11.1000°E)
Time: 04:58:23
(UTC+00:00)

NOSS 3-1 (A) - Pass Details

Date: 17 November 2019
Orbit: 769 x 1443 km, 63.4° (Epoch: 01 December)

Event Time Altitude Azimuth Distance (km) Brightness Sun altitude
Rises 16:39:11 0° 203° (SSW) 3,274 6.9 -9.8°
Reaches altitude 10° 16:41:30 10° 200° (SSW) 2,389 6.1 -10.2°
Maximum altitude 16:46:52 60° 121° (ESE) 1,003 3.4 -11.1°
Enters shadow 16:52:57 10° 44° (NE) 2,709 5.3 -12.1°
